TimeCST,TemperatureF,Dew PointF,Humidity,Sea Level PressureIn,VisibilityMPH,Wind Direction,Wind SpeedMPH,Gust SpeedMPH,PrecipitationIn,Events,Conditions,WindDirDegrees,DateUTC
12:00 AM,71,62,67,29.84,12,ESE,4.6,,,,Scattered Clouds,110,2012-07-20 06:00:00
12:00 AM,71.6,62.6,73,29.99,6.2,ESE,4.6,-,N/A,,Scattered Clouds,110,2012-07-20 06:00:00
1:00 AM,71.6,62.6,73,29.97,6.2,ENE,4.6,-,N/A,,Partly Cloudy,70,2012-07-20 07:00:00
2:00 AM,71.6,60.8,69,29.96,-9999.0,East,4.6,-,N/A,,Clear,100,2012-07-20 08:00:00
3:00 AM,72,63,65,29.80,12,Calm,Calm,,,,Partly Cloudy,,2012-07-20 09:00:00
3:00 AM,71.6,62.6,73,29.95,-9999.0,Calm,Calm,-,N/A,,Clear,0,2012-07-20 09:00:00
4:00 AM,71.6,66.2,83,29.96,-9999.0,East,5.8,-,N/A,,Clear,100,2012-07-20 10:00:00
5:00 AM,71.6,64.4,78,29.95,-9999.0,East,6.9,-,N/A,,Clear,80,2012-07-20 11:00:00
6:00 AM,72,62,63,29.80,12,ENE,4.6,,,,Partly Cloudy,60,2012-07-20 12:00:00
6:00 AM,71.6,62.6,73,29.95,-9999.0,ENE,4.6,-,N/A,,Clear,60,2012-07-20 12:00:00
7:00 AM,75.2,64.4,69,29.97,6.2,East,2.3,-,N/A,,Mostly Cloudy,100,2012-07-20 13:00:00
8:00 AM,77.0,64.4,65,29.99,6.2,ENE,8.1,-,N/A,,Mostly Cloudy,60,2012-07-20 14:00:00
9:00 AM,77.0,64.4,65,29.99,6.2,East,10.4,-,N/A,,Mostly Cloudy,100,2012-07-20 15:00:00
10:00 AM,82.4,60.8,48,30.00,6.2,ENE,8.1,-,N/A,,Mostly Cloudy,70,2012-07-20 16:00:00
11:00 AM,80.6,60.8,51,29.99,6.2,ENE,12.7,-,N/A,,Mostly Cloudy,60,2012-07-20 17:00:00
12:00 PM,81,60,39,29.81,12,ENE,10.4,,,,Overcast,60,2012-07-20 18:00:00
12:00 PM,80.6,60.8,51,29.97,6.2,ENE,10.4,-,N/A,,Mostly Cloudy,60,2012-07-20 18:00:00
1:00 PM,80.6,62.6,54,29.95,6.2,ENE,8.1,-,N/A,,Mostly Cloudy,70,2012-07-20 19:00:00
2:00 PM,78.8,60.8,54,29.95,6.2,SE,6.9,-,N/A,,Mostly Cloudy,130,2012-07-20 20:00:00
3:00 PM,78,62,49,29.75,12,SE,6.9,,,,Overcast,130,2012-07-20 21:00:00
3:00 PM,78.8,62.6,57,29.93,6.2,SE,6.9,-,N/A,,Mostly Cloudy,130,2012-07-20 21:00:00
4:00 PM,78.8,60.8,54,29.93,6.2,ESE,6.9,-,N/A,,Mostly Cloudy,110,2012-07-20 22:00:00
5:00 PM,73.4,69.8,88,29.94,6.2,WSW,9.2,-,N/A,,Mostly Cloudy,250,2012-07-20 23:00:00
5:31 PM,73.4,69.8,88,29.95,3.1,SW,6.9,-,N/A,Rain,Light Rain,230,2012-07-20 23:31:00
6:00 PM,72,69,88,29.79,9,SW,2.3,,,Fog,Light Fog,220,2012-07-21 00:00:00
6:00 PM,71.6,69.8,94,29.96,6.2,SW,2.3,-,N/A,,Drizzle,220,2012-07-21 00:00:00
7:00 PM,71.6,68.0,88,29.98,6.2,SW,5.8,-,N/A,,Light Drizzle,230,2012-07-21 01:00:00
9:00 PM,71.6,66.2,83,30.01,6.2,ENE,4.6,-,N/A,,Mostly Cloudy,60,2012-07-21 03:00:00
10:00 PM,71.6,64.4,78,30.01,6.2,ESE,6.9,-,N/A,,Mostly Cloudy,120,2012-07-21 04:00:00
11:00 PM,69.8,62.6,78,30.01,6.2,ENE,5.8,-,N/A,,Scattered Clouds,70,2012-07-21 05:00:00